Regional Weather Roundup
Issued by NWS

Home | Current Version | Previous Version | Graphics & Text | Print | Product List | Glossary On
Versions: 1 2 3 4 5 6 7 8 9 10 11 12 13 14 15 16 17 18 19 20 21 22 23 24 25 26 27 28 29 30 31 32 33 34 35 36 37 38 39 40 41 42 43 44 45 46 47 48 49 50
000
ASUS43 KMPX 231810
RWRMN
WEATHER ROUNDUP FOR MINNESOTA
NATIONAL WEATHER SERVICE TWIN CITIES/CHANHASSEN MN
100 PM CDT SUN APR 23 2017


NOTE: "FAIR" INDICATES FEW OR NO CLOUDS BELOW 12,000 FEET WITH NO
SIGNIFICANT WEATHER AND/OR OBSTRUCTIONS TO VISIBILITY. N/A MEANS
CURRENT SKY AND/OR WEATHER CONDITIONS ARE NOT AVAILABLE.

MNZ060>063-068>070-231900-
   Twin Cities Metro

CITY           SKY/WX    TMP DP  RH WIND       PRES   REMARKS
TWIN CITIES    MOSUNNY   64  41  42 N3        30.04F
6HR MIN TEMP:  49; 6HR MAX TEMP:  64;

ST PAUL        SUNNY     62  43  49 E5        30.05F
CRYSTAL        SUNNY     60  40  47 E6        30.03F
BLAINE         PTSUNNY   61  45  55 NE9       30.05F
LAKEVILLE      SUNNY     64  39  39 CALM      30.03F
EDEN PRAIRIE   SUNNY     64  39  39 VRB5      30.03F
6HR MIN TEMP:  47; 6HR MAX TEMP:  64;

SOUTH ST PAUL  SUNNY     62  43  48 CALM      30.04F
LAKE ELMO      FAIR      61  45  55 E6        30.05F
$$
MNZ001>005-007-008-013>017-022>024-027-028-231900-
   Northwest Minnesota

CITY           SKY/WX    TMP DP  RH WIND       PRES   REMARKS
BEMIDJI        LGT SNOW  30  28  92 E13       30.15F WCI  20
HALLOCK        CLOUDY    37  12  35 E14       30.20S
ROSEAU         CLOUDY    34  16  47 E15       30.21F WCI  24
WARROAD        CLOUDY    32  16  51 NE12      30.22F WCI  23
THIEF RVR FALL CLOUDY    34  18  52 E13       30.17F WCI  25
CROOKSTON      LGT SNOW  34  28  80 E16       30.16F WCI  23
FOSSTON        LGT SNOW  30  28  93 NE13      30.15F WCI  20
DETROIT LAKES  CLOUDY    39  32  75 E10G17    30.07F
MOORHEAD       CLOUDY    39  34  81 NE14      30.08F
PARK RAPIDS    CLOUDY    33  26  75 E13       30.10F WCI  24
MAHNOMEN       CLOUDY    32  28  83 E16       30.11F WCI  21
$$
MNZ006-009>011-018-025>026-231900-
   North Central Minnesota

CITY           SKY/WX    TMP DP  RH WIND       PRES   REMARKS
BAUDETTE       PTSUNNY   36  11  35 NE8       30.19F
FLAG ISLAND    CLOUDY    32  12  43 N12       30.22F WCI  23
INTL FALLS     CLOUDY    35  14  42 NE10      30.20F WCI  27
6HR MIN TEMP:  28; 6HR MAX TEMP:  35;

WASKISH        CLOUDY    34  23  64 E9        30.19F WCI  26
BIG FORK       CLOUDY    36  21  55 E5        30.18S
LONGVILLE      FLURRIES  30  30 100 NE5       30.14F WCI  25
GRAND RAPIDS   LGT SNOW  33  28  81 VRB6      30.18F WCI  28
CRANE LAKE     CLOUDY    34  16  47 CALM      30.22F
ORR            CLOUDY    36  19  51 MISG      30.16F
COOK           CLOUDY    36  19  51 N5        30.18F
WALKER         CLOUDY    30  26  86 E7        30.14F WCI  23
$$
MNZ012-019>021-037-231900-
   Northeast Minnesota

CITY           SKY/WX    TMP DP  RH WIND       PRES   REMARKS
DULUTH         CLOUDY    34  30  85 E14       30.16S WCI  25
6HR MIN TEMP:  32; 6HR MAX TEMP:  34; 6HR PCP:  0.09;

ELY            CLOUDY    34  19  55 N6        30.17F WCI  29
HIBBING        CLOUDY    33  21  61 VRB6      30.17F WCI  28
EVELETH        CLOUDY    37  17  43 E7        30.17F
DULUTH HARBOR  CLOUDY    36  34  93 NE18      30.20F
TWO HARBORS    CLOUDY    37  30  75 E10       30.17F
SILVER BAY     CLOUDY    36  28  75 E8        30.17F
GRAND MARAIS     N/A     38  27  64 E9        30.23
G MARAIS ARPRT CLOUDY    34  16  47 SE8       30.17S WCI  27
$$
MNZ029>031-032-039>041-046>048-054>057-064-231900-
   West Central Minnesota

CITY           SKY/WX    TMP DP  RH WIND       PRES   REMARKS
FERGUS FALLS   PTSUNNY   46  36  66 E15G23    30.02F
WHEATON        CLOUDY    57  41  54 E16       30.00F
MORRIS         MOSUNNY   61  43  51 SE13G20   29.97F
ALEXANDRIA     CLOUDY    51  39  63 E16       30.04F
ELBOW LAKE     PTSUNNY   51  39  64 E14G21    30.02F
WADENA         PTSUNNY   43  34  70 E13G18    30.06F
GLENWOOD       MOSUNNY   55  41  58 E14G21    30.02F
APPLETON       CLOUDY    63  37  39 S3        29.97F
BENSON         CLOUDY    64  34  32 S6        30.00F
ORTONVILLE     CLOUDY    57  41  54 SE3       29.97F
MADISON        PTSUNNY   64  43  45 SE7       29.97F
WILLMAR        FAIR      63  43  48 SE8       30.01F
$$
MNZ033>034-036-042>043-049>051-058-059-231900-
   Central Minnesota

CITY           SKY/WX    TMP DP  RH WIND       PRES   REMARKS
ST CLOUD       SUNNY     53  40  61 E12       30.06F
6HR MIN TEMP:  44; 6HR MAX TEMP:  53;

SAUK CENTRE    MOCLDY    50  39  67 E16       30.04F
PAYNESVILLE    PTSUNNY   56  41  56 E12       30.03F
AITKIN         CLOUDY    39  30  70 E10G16    30.12F
PINE RIVER     CLOUDY    34  30  86 E12       30.15F WCI  25
BRAINERD       CLOUDY    41  33  73 NE12      30.11F
STAPLES        CLOUDY    43  30  61 E12       30.08F
LONG PRAIRIE   CLOUDY    46  36  66 NE13      30.05F
LITTLE FALLS   CLOUDY    45  34  65 NE8       30.08F
LITCHFIELD     SUNNY     61  45  55 E13       30.03F
BUFFALO        MOSUNNY   58  41  54 NE9       30.05F
MAPLE LAKE     MOSUNNY   57  45  62 E8        30.05F
HUTCHINSON     CLOUDY    62  44  51 CALM      30.02F
$$
MNZ037-044-045-052-053-231900-
   East Central Minnesota

CITY           SKY/WX    TMP DP  RH WIND       PRES   REMARKS
PRINCETON      MOSUNNY   54  39  58 E9        30.07F
MORA           CLOUDY    45  34  65 E9        30.11F
CAMBRIDGE      CLOUDY    52  39  62 NE8       30.07F
RUSH CITY      PTSUNNY   50  38  62 NE12      30.09F
MOOSE LAKE     CLOUDY    37  32  81 E8        30.13F
HINCKLEY       CLOUDY    45  36  70 E9        30.11F
CLOQUET        CLOUDY    34  30  86 E12       30.15F WCI  25
MCGREGOR       CLOUDY    36  32  87 NE7       30.14F
$$
MNZ071>073-080-081-089-090-097-098-231900-
   Southwest Minnesota

CITY           SKY/WX    TMP DP  RH WIND       PRES   REMARKS
MONTEVIDEO     PTSUNNY   64  39  39 S7        29.98F
GRANITE FALLS  CLOUDY    65  40  41 E6        30.00F
CANBY          CLOUDY    64  42  43 E8        29.97F
MARSHALL       CLOUDY    67  34  29 SW14      29.97F
REDWOOD FALLS  MOSUNNY   66  36  32 SW7       29.99F
OLIVIA         PTSUNNY   63  37  39 S6        29.99F
PIPESTONE      CLOUDY    64  28  25 SW15G25   29.98F
WINDOM         MOSUNNY   68  28  22 S14       30.00F
WORTHINGTON    MOSUNNY   67  29  24 S22G29    30.00F
JACKSON        MOSUNNY   66  28  24 SW15      30.03F
TRACY          CLOUDY    67  35  30 SW14      29.99F
SLAYTON        CLOUDY    65  31  28 S18G24    30.00F
$$
MNZ065>067-074>077-082>085-091>093-231900-
   South Central Minnesota

CITY           SKY/WX    TMP DP  RH WIND       PRES   REMARKS
MANKATO        SUNNY     65  34  31 W3        30.03F
NEW ULM        MOSUNNY   64  37  36 CALM      30.00F
ST JAMES       MOSUNNY   70  32  24 S14       30.02F
FAIRMONT       SUNNY     68  32  26 SW17G23   30.02F
GLENCOE        MOSUNNY   64  43  46 SW7       30.02F
FARIBAULT      SUNNY     66  37  34 SW7       30.04F
OWATONNA       SUNNY     68  34  28 SW9       30.04F
WASECA         SUNNY     64  32  29 CALM      30.05F
ALBERT LEA     SUNNY     64  25  22 SW7       30.04F
$$
MNZ078>079-086>088-094>096-231900-
   Southeast Minnesota

CITY           SKY/WX    TMP DP  RH WIND       PRES   REMARKS
ROCHESTER      SUNNY     66  35  31 W9G21     30.06F
6HR MIN TEMP:  43; 6HR MAX TEMP:  66;

RED WING       SUNNY     68  32  26 W13       30.03F
STANTON        SUNNY     67  38  34 W8        30.02F
DODGE CENTER   SUNNY     64  34  32 SW7       30.05F
WINONA         SUNNY     70  36  28 CALM      30.04F
AUSTIN         SUNNY     66  34  30 SW5       30.05F
PRESTON        SUNNY     66  33  29 W9G17     30.06F
$$
ABBREVIATIONS USED IN REMARKS
   TC - TEMPERATURES IN CELSIUS
  WCI - WIND CHILL INDEX
   HX - HEAT INDEX
  VSB - VISIBILITY
$$




USA.gov is the U.S. government's official web portal to all federal, state and local government web resources and services.